Regional Weather Roundup
Issued by NWS

Home | Current Version | Previous Version | Text Only | Print | Product List | Glossary Off
Versions: 1 2 3 4 5 6 7 8 9 10 11 12 13 14 15 16 17 18 19 20 21 22 23 24 25 26 27 28 29 30 31 32 33 34 35 36 37 38 39 40 41 42 43 44 45 46 47 48 49 50

000
ASUS45 KSLC 181910
RWRUT

UTAH REGIONAL WEATHER ROUNDUP
NATIONAL WEATHER SERVICE SALT LAKE CITY UT
100 PM MDT SAT APR 18 2015

UTZ001>011-023>025-182000-

NORTHERN UTAH

CITY           SKY/WX    TMP DP  RH WIND       PRES   REMARKS
BRIGHAM CITY   SUNNY     62  32  32 NE3       30.03F
HILL AFB       SUNNY     60  30  32 VRB7      30.03F
LOGAN          SUNNY     59  36  42 CALM      30.03F
OGDEN          SUNNY     62  32  32 VRB7      30.03F
PROVO AIRPORT  MOSUNNY   59  34  38 VRB5      30.03F
SALT LAKE CITY MOSUNNY   61  38  42 NW12      30.03F
VERNAL         SUNNY     55  37  50 MISG      29.95F
WENDOVER       SUNNY     66  25  20 NE5       30.04F
HEBER CITY     SUNNY     61  30  31 NW3       29.99F
WEST JORDAN    SUNNY     61  39  44 NW12      30.04F

$$

UTZ012>022-026-027-182000-

SOUTHERN/CENTRAL UTAH

CITY           SKY/WX    TMP DP  RH WIND       PRES   REMARKS
BLANDING       PTSUNNY   47  40  75 SE9       30.09F
BRYCE CANYON   SUNNY     56  26  31 NW17      30.10S
CEDAR CITY     SUNNY     63  21  20 N10       30.07F
DELTA          SUNNY     63  20  19 W5        30.04F
HANKSVILLE     SUNNY     59  39  47 CALM      29.99F
MILFORD        SUNNY     65  21  18 N10       30.05F
MOAB/CYNLANDS  MOSUNNY   54  43  66 SE7       29.97F
PRICE          SUNNY     65  26  23 NW12G26   29.95F
ST GEORGE      CLEAR     70  28  21 S5        30.00F

$$

REGIONAL REPORTS     COLORADO/ARIZONA

CITY           SKY/WX    TMP DP  RH WIND       PRES   REMARKS
CRAIG, CO      LGT SNOW  34  32  92 CALM      29.98S FOG
GRAND JUNCTION CLOUDY    39  36  89 SE3       30.01F
RIFLE          SNOW      34  32  92 E3        30.01F VSB 1/2
MONTROSE       LGT RAIN  39  36  89 SE12      30.02F WCI  32
CORTEZ         CLOUDY    45  36  70 W12       30.03S
PAGE, AZ       SUNNY     65  30  27 VRB3      29.99F
GRAND CANYON   SUNNY     60  18  19 VRB5      30.09F
KINGMAN        SUNNY     76  15  10 W6        30.02F
FLAGSTAFF      MOSUNNY   60  16  18 W12G17    30.10F

$$

REGIONAL REPORTS    NEVADA/IDAHO/WYOMING

CITY           SKY/WX    TMP DP  RH WIND       PRES   REMARKS
LAS VEGAS, NV  SUNNY     80  16   9 E5        29.92F
ELY            SUNNY     63  17  17 N17       30.11F
ELKO           SUNNY     67  22  18 NE8       30.10F
POCATELLO, ID  MOSUNNY   64  27  24 N8        30.07F
BURLEY         SUNNY     64  31  28 SW7       30.06F
EVANSTON, WY   SUNNY     56  25  30 N21G30    30.04F
ROCK SPRINGS   MOSUNNY   55  25  31 NE20G30   29.97F
KEMMERER       MOSUNNY   57  21  24 NW21G29   30.02S

$$


USA.gov is the U.S. government's official web portal to all federal, state and local government web resources and services.